TimeEST,TemperatureF,Dew PointF,Humidity,Sea Level PressureIn,VisibilityMPH,Wind Direction,Wind SpeedMPH,Gust SpeedMPH,PrecipitationIn,Events,Conditions,WindDirDegrees,DateUTC
12:52 AM,62.1,62.1,100,30.36,0.2,NNE,3.5,-,N/A,Fog,Fog,30,2013-01-10 05:52:00
1:52 AM,62.1,62.1,100,30.35,0.5,NNE,4.6,-,N/A,Fog,Fog,30,2013-01-10 06:52:00
2:14 AM,60.8,60.8,100,30.35,0.2,NNE,3.5,-,N/A,Fog,Fog,30,2013-01-10 07:14:00
2:31 AM,60.8,60.8,100,30.35,0.5,Calm,Calm,-,N/A,Fog,Fog,0,2013-01-10 07:31:00
2:52 AM,61.0,61.0,100,30.35,0.8,Calm,Calm,-,N/A,,Overcast,0,2013-01-10 07:52:00
3:10 AM,62.6,62.6,100,30.34,1.0,Calm,Calm,-,N/A,,Overcast,0,2013-01-10 08:10:00
3:30 AM,62.6,62.6,100,30.34,3.0,Calm,Calm,-,N/A,,Overcast,0,2013-01-10 08:30:00
3:52 AM,62.1,62.1,100,30.33,1.8,North,3.5,-,N/A,,Overcast,10,2013-01-10 08:52:00
4:04 AM,60.8,60.8,100,30.33,2.0,North,3.5,-,N/A,,Overcast,350,2013-01-10 09:04:00
4:13 AM,60.8,60.8,100,30.33,5.0,North,3.5,-,N/A,,Overcast,350,2013-01-10 09:13:00
4:52 AM,60.1,60.1,100,30.32,8.0,Calm,Calm,-,N/A,,Mostly Cloudy,0,2013-01-10 09:52:00
5:07 AM,60.8,60.8,100,30.32,1.5,Calm,Calm,-,N/A,,Scattered Clouds,0,2013-01-10 10:07:00
5:12 AM,59.0,57.2,94,30.32,0.5,Calm,Calm,-,N/A,Fog,Fog,0,2013-01-10 10:12:00
5:20 AM,59.0,59.0,100,30.32,1.0,Calm,Calm,-,N/A,,Mostly Cloudy,0,2013-01-10 10:20:00
5:26 AM,59.0,59.0,100,30.32,4.0,Calm,Calm,-,N/A,,Mostly Cloudy,0,2013-01-10 10:26:00
5:52 AM,59.0,59.0,100,30.32,5.0,Calm,Calm,-,N/A,,Mostly Cloudy,0,2013-01-10 10:52:00
6:03 AM,59.0,59.0,100,30.32,6.0,Calm,Calm,-,N/A,,Mostly Cloudy,0,2013-01-10 11:03:00
6:52 AM,59.0,59.0,100,30.33,9.0,North,4.6,-,N/A,,Scattered Clouds,360,2013-01-10 11:52:00
7:05 AM,59.0,59.0,100,30.34,0.5,NNE,3.5,-,N/A,Fog,Fog,30,2013-01-10 12:05:00
7:52 AM,59.0,59.0,100,30.36,0.5,North,5.8,-,N/A,Fog,Fog,10,2013-01-10 12:52:00
8:20 AM,60.8,60.8,100,30.36,3.0,NNE,4.6,-,N/A,,Mostly Cloudy,20,2013-01-10 13:20:00
8:52 AM,61.0,61.0,100,30.36,6.0,NNE,6.9,-,N/A,,Mostly Cloudy,20,2013-01-10 13:52:00
9:52 AM,64.9,63.0,93,30.37,7.0,North,9.2,-,N/A,,Mostly Cloudy,360,2013-01-10 14:52:00
10:18 AM,62.6,62.6,100,30.36,5.0,North,6.9,-,N/A,,Mostly Cloudy,360,2013-01-10 15:18:00
10:38 AM,64.4,62.6,94,30.35,2.0,NNE,6.9,-,N/A,,Overcast,20,2013-01-10 15:38:00
10:52 AM,64.9,62.1,90,30.35,3.0,NNE,8.1,-,N/A,,Mostly Cloudy,20,2013-01-10 15:52:00
11:22 AM,64.4,62.6,94,30.33,7.0,NE,5.8,-,N/A,,Mostly Cloudy,40,2013-01-10 16:22:00
11:52 AM,68.0,62.1,81,30.32,10.0,NE,6.9,-,N/A,,Mostly Cloudy,50,2013-01-10 16:52:00
12:52 PM,72.0,64.9,78,30.30,10.0,NE,6.9,-,N/A,,Mostly Cloudy,40,2013-01-10 17:52:00
1:52 PM,71.1,64.9,81,30.30,10.0,NE,6.9,-,N/A,,Mostly Cloudy,50,2013-01-10 18:52:00
2:52 PM,71.1,64.0,78,30.30,10.0,NNE,6.9,-,N/A,,Mostly Cloudy,30,2013-01-10 19:52:00
3:52 PM,68.0,63.0,84,30.31,10.0,NNE,5.8,-,N/A,,Mostly Cloudy,20,2013-01-10 20:52:00
4:52 PM,64.0,61.0,90,30.31,10.0,NNE,6.9,-,N/A,,Mostly Cloudy,30,2013-01-10 21:52:00
5:52 PM,62.1,61.0,96,30.30,10.0,NNE,4.6,-,N/A,,Mostly Cloudy,30,2013-01-10 22:52:00
6:52 PM,63.0,61.0,93,30.31,10.0,NE,3.5,-,N/A,,Mostly Cloudy,40,2013-01-10 23:52:00
7:52 PM,62.1,62.1,100,30.30,10.0,ENE,3.5,-,N/A,,Scattered Clouds,70,2013-01-11 00:52:00
8:52 PM,64.0,63.0,96,30.31,10.0,ESE,3.5,-,N/A,,Mostly Cloudy,120,2013-01-11 01:52:00
9:52 PM,66.0,64.0,93,30.31,10.0,SE,4.6,-,N/A,,Mostly Cloudy,140,2013-01-11 02:52:00
10:52 PM,66.0,64.0,93,30.30,10.0,SE,8.1,-,N/A,,Mostly Cloudy,130,2013-01-11 03:52:00
11:52 PM,64.9,64.0,97,30.29,10.0,Calm,Calm,-,N/A,,Mostly Cloudy,0,2013-01-11 04:52:00